This is the latest recevied weather packets stored in our database for station/object N0KTA-2. If no packets are shown the sender has not sent any weather packets the latest 10 day(s).
| Time | Temp. | Humidity | Pressure | Rain* | Wind** | Luminosity | Snow |
|---|---|---|---|---|---|---|---|
| 1777698565 | 12.78° C | 72% | 1015.1 hPa | 0 mm | - | - | - |
| 1777697966 | 12.78° C | 70% | 1015.6 hPa | 0 mm | - | - | - |
| 1777697365 | 12.78° C | 70% | 1015.6 hPa | 0 mm | - | - | - |
| 1777696765 | 12.78° C | 70% | 1015.6 hPa | 0 mm | - | - | - |
| 1777696166 | 12.78° C | 71% | 1015.5 hPa | 0 mm | - | - | - |
| 1777695565 | 12.78° C | 73% | 1015.6 hPa | 0 mm | - | - | - |
| 1777694966 | 12.78° C | 73% | 1015.6 hPa | 0 mm | - | - | - |
| 1777694366 | 12.78° C | 68% | 1015.9 hPa | 0 mm | - | - | - |
| 1777693765 | 12.78° C | 68% | 1015.8 hPa | 0 mm | - | - | - |
| 1777693166 | 12.78° C | 67% | 1015.7 hPa | 0 mm | - | - | - |
| 1777692565 | 13.33° C | 68% | 1015.8 hPa | 0 mm | - | - | - |
| 1777691966 | 13.33° C | 67% | 1015.9 hPa | 0 mm | - | - | - |
| 1777691365 | 13.89° C | 61% | 1015.7 hPa | 0 mm | - | - | - |
| 1777690764 | 13.89° C | 59% | 1015.6 hPa | 0 mm | - | - | - |
| 1777690165 | 14.44° C | 57% | 1015.4 hPa | 0 mm | - | - | - |
| 1777689566 | 14.44° C | 56% | 1015.3 hPa | 0 mm | - | - | - |
| 1777688965 | 14.44° C | 56% | 1015.3 hPa | 0 mm | - | - | - |
| 1777688366 | 14.44° C | 55% | 1015.3 hPa | 0 mm | - | - | - |
| 1777687765 | 15° C | 55% | 1015.3 hPa | 0 mm | - | - | - |
| 1777687165 | 15° C | 53% | 1015.5 hPa | 0 mm | - | - | - |
| 1777686565 | 15° C | 53% | 1015.5 hPa | 0 mm | - | - | - |
| 1777685966 | 15° C | 52% | 1015 hPa | 0 mm | - | - | - |
| 1777685365 | 15° C | 52% | 1014.4 hPa | 0 mm | - | - | - |
| 1777684764 | 15.56° C | 51% | 1014.3 hPa | 0 mm | - | - | - |
| 1777684166 | 15.56° C | 50% | 1014.3 hPa | 0 mm | - | - | - |
* Rain latest hour (hover to see other rain measurements)
** Current wind speed in m/s (hover to see current wind gust speed)